Beauvais-Tillé Airport

Airport
ICAO code: 
LFOB
IATA Code: 
BVA
Summary
ICAO Region: 
EUR
Territory: 
Location: 
Tillé, Picardie
Serving: 
Beauvais
Elevation: 
359 ft
Coordinates: 
Aerial View: 
49° 27' 12.357" N, 2° 6' 54.658" E
Metar
Observation
LFOB 161000Z AUTO 23003KT 180V280 9999 SCT007 BKN052 BKN070 02/02 Q1029 TEMPO 1200 DZRA
Station
Beauvais
Date/Time
2022-01-16 10:00:00
Wind direction
230°
Wind speed
03 kts
Lowest cloud amount
scattered clouds
Temperature
2°C
Dew point
2°C
Humidity
100%
QNH
1029 hPa
Weather condition
n/a

Description

Airport serving Beauvais.

Climatology

Temperate Marine climate/Oceanic climate (Köppen climate classification Cfb). Moderately cool summer and comparatively warm winter. Prevailing south-westerly winds from the Atlantic Ocean.

Runways

Designator Length Width Surface Rops
13R/31L 0 0 UNK No/No
4/22 1105 30 ASP Yes/Yes
13/31 2430 45 ASP Yes/Yes
Airport map: 
Aerial View: 

SKYbrary Partners:

Safety knowledge contributed by: